EW5231 Weather Reports


time (UTC)temp
C
wind
direction
speed
KPH
gust
KPH
rain 1hr
cm
rain 24hr
cm
rain mn
cm
humidity
%
barometer
mb
20260510150022 10 236 3.2 9.7 0.23 0.33 0.23 91 1010.8
20260510144531 10 205 1.6 6.4 0.13 0.23 0.13 89 1010.6
20260510143053 10 126 4.8 9.7 0.00 0.10 0.00 86 1010.0
20260510141546 10 209 3.2 24.1 0.00 0.10 0.00 85 1010.3
20260510140015 11 220 3.2 11.3 0.00 0.10 0.00 85 1010.2
20260510134515 11 219 4.8 12.9 0.00 0.10 0.00 85 1010.2
20260510133009 10 184 4.8 16.1 0.00 0.10 0.00 88 1010.1
20260510131504 9 245 4.8 9.7 0.00 0.10 0.00 93 1010.1
20260510130002 8 120 6.4 17.7 0.00 0.10 0.00 95 1009.8
20260510124558 8 180 4.8 14.5 0.00 0.10 0.00 96 1010.3
20260510123028 7 154 3.2 12.9 0.00 0.10 0.00 96 1010.6
20260510121523 7 153 6.4 12.9 0.00 0.10 0.00 96 1010.2
20260510120053 7 159 3.2 16.1 0.00 0.10 0.00 96 1010.3
20260510114550 7 328 1.6 11.3 0.00 0.10 0.00 96 1010.1
20260510113047 7 120 6.4 16.1 0.00 0.10 0.00 96 1009.7
20260510111554 7 183 6.4 16.1 0.00 0.10 0.00 96 1009.9
20260510110043 7 155 4.8 16.1 0.00 0.10 0.00 96 1009.6
20260510104548 7 160 8.0 17.7 0.00 0.10 0.00 96 1009.0
20260510103010 7 109 4.8 16.1 0.00 0.10 0.00 96 1009.2
20260510101509 7 142 4.8 16.1 0.00 0.10 0.00 96 1009.2
20260510100005 7 123 6.4 17.7 0.00 0.10 0.00 96 1008.8
20260510094506 7 148 6.4 19.3 0.00 0.10 0.00 96 1008.6
20260510093004 7 168 8.0 12.9 0.00 0.10 0.00 96 1008.6
20260510091503 7 124 3.2 12.9 0.00 0.10 0.00 96 1008.3
20260510090100 7 182 4.8 16.1 0.00 0.10 0.00 96 1008.4
20260510084602 6 126 8.0 20.9 0.00 0.10 0.00 96 1008.2
20260510083056 6 126 8.0 22.5 0.00 0.10 0.00 96 1008.7
20260510081623 6 165 8.0 16.1 0.00 0.10 0.00 96 1008.8
20260510080027 6 148 8.0 19.3 0.00 0.10 0.00 96 1008.9
20260510074523 6 148 8.0 19.3 0.00 0.10 0.00 96 1008.7
20260510073019 6 163 6.4 20.9 0.00 0.10 0.00 96 1008.6
20260510071518 6 142 9.7 20.9 0.00 0.10 0.00 96 1008.6
20260510070019 6 128 9.7 14.5 0.00 0.10 0.10 96 1009.0
20260510064512 6 163 9.7 22.5 0.00 0.10 0.10 96 1008.8
20260510063009 6 188 6.4 19.3 0.00 0.10 0.10 96 1008.9
20260510061512 6 162 14.5 24.1 0.00 0.10 0.10 96 1009.0
20260510060007 6 136 8.0 22.5 0.00 0.10 0.10 96 1009.2
20260510054514 6 156 11.3 20.9 0.00 0.10 0.10 96 1009.0
20260510053106 6 152 9.7 22.5 0.00 0.10 0.10 96 1009.1
20260510051602 6 157 6.4 24.1 0.00 0.10 0.10 96 1008.9
20260510050003 6 140 9.7 27.4 0.00 0.10 0.10 96 1008.9
20260510044502 6 138 9.7 24.1 0.00 0.10 0.10 96 1009.2
20260510043037 6 150 9.7 29.0 0.00 0.10 0.10 96 1008.9
20260510041533 6 157 9.7 19.3 0.00 0.10 0.10 96 1008.9
20260510040038 6 140 9.7 20.9 0.00 0.10 0.10 96 1009.2
20260510034526 6 145 9.7 19.3 0.00 0.10 0.10 96 1009.1
20260510033039 6 137 6.4 22.5 0.00 0.10 0.10 96 1009.1
20260510031525 5 148 8.0 22.5 0.00 0.10 0.10 95 1009.2
20260510030127 5 196 9.7 24.1 0.00 0.10 0.10 96 1009.3
20260510024553 5 169 11.3 24.1 0.00 0.10 0.10 95 1009.3
20260510023053 5 114 6.4 27.4 0.00 0.10 0.10 95 1009.3
20260510021537 5 148 14.5 27.4 0.00 0.10 0.10 95 1009.4
20260510020019 5 138 11.3 22.5 0.00 0.10 0.10 95 1009.8
20260510014502 5 117 9.7 17.7 0.00 0.10 0.10 94 1009.8
20260510013108 5 113 6.4 17.7 0.00 0.10 0.10 94 1009.7
20260510011538 5 124 9.7 19.3 0.00 0.10 0.10 94 1010.2
20260510010037 5 129 11.3 22.5 0.00 0.10 0.10 94 1010.1
20260510004540 5 136 8.0 20.9 0.00 0.10 0.10 94 1010.1
20260510003043 5 136 11.3 17.7 0.00 0.10 0.10 94 1009.8
20260510000055 5 157 11.3 17.7 0.00 0.10 0.10 94 1009.3
20260509234559 5 146 11.3 27.4 0.00 0.10 0.10 94 1009.2
20260509233056 5 138 6.4 17.7 0.00 0.10 0.10 93 1009.4
20260509231549 5 144 6.4 19.3 0.00 0.10 0.10 93 1009.5
20260509230034 6 162 9.7 19.3 0.00 0.10 0.10 93 1009.4
20260509224536 6 150 9.7 20.9 0.00 0.10 0.10 93 1009.4
20260509223033 6 147 8.0 17.7 0.00 0.10 0.10 93 1009.4
20260509221537 5 164 9.7 20.9 0.00 0.10 0.10 93 1009.6
20260509220022 6 149 9.7 17.7 0.00 0.10 0.10 93 1009.7
20260509214513 5 156 9.7 25.7 0.00 0.10 0.10 93 1009.7
20260509213114 6 155 8.0 17.7 0.00 0.10 0.10 93 1009.7
20260509211615 5 109 9.7 24.1 0.00 0.10 0.10 93 1009.7
20260509210036 5 130 14.5 22.5 0.00 0.10 0.10 92 1009.7
20260509204533 5 119 6.4 17.7 0.00 0.10 0.10 92 1010.0
20260509203044 5 165 9.7 22.5 0.00 0.10 0.10 91 1010.1
20260509201602 5 118 11.3 16.1 0.00 0.10 0.10 91 1010.2
20260509200030 5 146 11.3 24.1 0.00 0.10 0.10 91 1010.3
20260509194534 6 180 3.2 16.1 0.00 0.10 0.10 91 1010.5
20260509193006 6 134 4.8 14.5 0.00 0.10 0.10 90 1010.4
20260509191620 6 140 6.4 16.1 0.00 0.10 0.10 90 1010.4
20260509190049 6 105 4.8 16.1 0.00 0.10 0.10 91 1010.4
20260509184559 6 118 3.2 12.9 0.00 0.10 0.10 91 1010.7
20260509183043 5 130 6.4 19.3 0.03 0.10 0.10 90 1010.9
20260509181546 5 105 8.0 16.1 0.05 0.10 0.10 90 1010.9
20260509180039 5 136 4.8 16.1 0.05 0.10 0.10 90 1011.1
20260509174539 5 130 8.0 17.7 0.08 0.10 0.10 88 1011.3
20260509173108 6 139 9.7 19.3 0.08 0.08 0.08 89 1011.4
20260509171539 5 134 11.3 24.1 0.05 0.05 0.05 89 1011.5
20260509170014 6 155 9.7 25.7 0.05 0.05 0.05 86 1011.6
20260509164535 6 164 4.8 12.9 0.03 0.03 0.03 85 1011.7
20260509163027 6 159 12.9 25.7 0.00 0.00 0.00 80 1011.8
20260509161530 6 190 9.7 29.0 0.00 0.00 0.00 78 1011.8
20260509160024 7 143 6.4 27.4 0.00 0.00 0.00 74 1011.9
20260509154522 8 129 17.7 30.6 0.00 0.00 0.00 66 1012.0
20260509153052 8 165 11.3 25.7 0.00 0.00 0.00 60 1012.3
20260509151550 8 135 6.4 16.1 0.00 0.00 0.00 58 1012.3